TimeCST,TemperatureF,Dew PointF,Humidity,Sea Level PressureIn,VisibilityMPH,Wind Direction,Wind SpeedMPH,Gust SpeedMPH,PrecipitationIn,Events,Conditions,WindDirDegrees,DateUTC
12:54 AM,5.0,-2.9,70,30.21,10.0,NNW,8.1,-,N/A,,Clear,330,2013-02-20 06:54:00
1:54 AM,6.1,-2.0,69,30.23,10.0,NW,9.2,-,N/A,,Clear,310,2013-02-20 07:54:00
2:54 AM,5.0,-2.0,73,30.26,10.0,NW,9.2,-,N/A,,Clear,310,2013-02-20 08:54:00
3:16 AM,5.0,-2.2,72,30.17,10.0,NW,11.5,-,N/A,,Mostly Cloudy,310,2013-02-20 09:16:00
3:54 AM,3.9,-2.0,76,30.29,10.0,WNW,11.5,-,N/A,,Overcast,290,2013-02-20 09:54:00
4:54 AM,3.9,-2.0,76,30.31,10.0,WNW,9.2,-,N/A,,Overcast,300,2013-02-20 10:54:00
5:29 AM,3.2,-2.2,78,30.21,10.0,NW,8.1,-,N/A,,Scattered Clouds,310,2013-02-20 11:29:00
5:54 AM,1.9,-2.9,80,30.33,10.0,WNW,8.1,-,N/A,,Clear,290,2013-02-20 11:54:00
6:54 AM,1.9,-2.0,83,30.35,10.0,NW,9.2,-,N/A,,Clear,310,2013-02-20 12:54:00
7:54 AM,5.0,-0.9,76,30.35,10.0,WNW,6.9,-,N/A,,Clear,300,2013-02-20 13:54:00
8:54 AM,12.9,1.9,62,30.35,10.0,NNW,12.7,21.9,N/A,,Clear,330,2013-02-20 14:54:00
9:54 AM,15.1,3.0,59,30.36,10.0,North,12.7,-,N/A,,Clear,360,2013-02-20 15:54:00
10:54 AM,17.1,3.9,56,30.37,10.0,NNW,8.1,16.1,N/A,,Clear,340,2013-02-20 16:54:00
11:54 AM,19.0,5.0,54,30.37,10.0,North,8.1,-,N/A,,Clear,10,2013-02-20 17:54:00
12:54 PM,21.0,5.0,50,30.36,10.0,North,10.4,-,N/A,,Clear,10,2013-02-20 18:54:00
1:54 PM,21.9,5.0,48,30.35,10.0,North,11.5,16.1,N/A,,Clear,350,2013-02-20 19:54:00
2:54 PM,21.9,5.0,48,30.39,10.0,WNW,9.2,-,N/A,,Clear,300,2013-02-20 20:54:00
3:54 PM,23.0,5.0,46,30.40,10.0,NNW,6.9,-,N/A,,Clear,330,2013-02-20 21:54:00
4:54 PM,21.9,5.0,48,30.41,10.0,NNW,9.2,-,N/A,,Clear,340,2013-02-20 22:54:00
5:54 PM,19.0,3.9,52,30.42,10.0,North,5.8,-,N/A,,Clear,350,2013-02-20 23:54:00
6:54 PM,18.0,3.9,54,30.43,10.0,North,9.2,-,N/A,,Clear,350,2013-02-21 00:54:00
7:54 PM,16.0,5.0,62,30.42,10.0,North,8.1,-,N/A,,Clear,350,2013-02-21 01:54:00
8:54 PM,14.0,3.9,64,30.42,10.0,North,8.1,-,N/A,,Clear,360,2013-02-21 02:54:00
9:54 PM,10.9,3.0,70,30.43,10.0,NNE,9.2,-,N/A,,Clear,20,2013-02-21 03:54:00
10:54 PM,10.0,1.0,67,30.42,10.0,NNE,4.6,-,N/A,,Clear,20,2013-02-21 04:54:00
11:54 PM,9.0,-0.0,67,30.43,10.0,Calm,Calm,-,N/A,,Clear,0,2013-02-21 05:54:00